| time (UTC) | temp C | wind direction | speed KPH | gust KPH | rain 1hr cm | rain 24hr cm | rain mn cm | humidity % | barometer mb |
| 20260504050001 | 10 | 134 | 3.2 | 4.8 | 0.00 | 0.00 | 0.00 | 59 | 1000.7 |
| 20260504045012 | 10 | 139 | 1.6 | 3.2 | 0.00 | 0.00 | 0.00 | 58 | 1000.6 |
| 20260504044025 | 11 | 179 | 0.0 | 0.0 | 0.00 | 0.00 | 0.00 | 58 | 1000.6 |
| 20260504043030 | 11 | 208 | 3.2 | 4.8 | 0.00 | 0.00 | 0.00 | 57 | 1000.9 |
| 20260504042028 | 11 | 177 | 1.6 | 3.2 | 0.00 | 0.00 | 0.00 | 57 | 1000.6 |
| 20260504041033 | 11 | 194 | 3.2 | 4.8 | 0.00 | 0.00 | 0.00 | 56 | 1000.8 |
| 20260504040033 | 11 | 152 | 3.2 | 4.8 | 0.00 | 0.00 | 0.00 | 56 | 1000.7 |
| 20260504035029 | 11 | 179 | 3.2 | 4.8 | 0.00 | 0.00 | 0.00 | 56 | 1000.6 |
| 20260504034009 | 11 | 300 | 4.8 | 6.4 | 0.00 | 0.00 | 0.00 | 57 | 1000.6 |
| 20260504032022 | 11 | 80 | 1.6 | 3.2 | 0.00 | 0.00 | 0.00 | 57 | 1000.7 |
| 20260504031033 | 11 | 171 | 1.6 | 3.2 | 0.00 | 0.00 | 0.00 | 57 | 1000.5 |
| 20260504025022 | 12 | 196 | 6.4 | 11.3 | 0.00 | 0.00 | 0.00 | 55 | 1000.3 |
| 20260504024007 | 11 | 227 | 3.2 | 4.8 | 0.00 | 0.00 | 0.00 | 56 | 1000.8 |
| 20260504023008 | 11 | 112 | 3.2 | 4.8 | 0.00 | 0.00 | 0.00 | 56 | 1001.0 |
| 20260504022032 | 11 | 157 | 0.0 | 0.0 | 0.00 | 0.00 | 0.00 | 58 | 1001.0 |
| 20260504021021 | 11 | 202 | 1.6 | 3.2 | 0.00 | 0.00 | 0.00 | 59 | 1001.0 |
| 20260504020027 | 11 | 153 | 0.0 | 0.0 | 0.00 | 0.00 | 0.00 | 58 | 1001.0 |
| 20260504015013 | 11 | 176 | 0.0 | 0.0 | 0.00 | 0.00 | 0.00 | 60 | 1000.8 |
| 20260504014014 | 11 | 188 | 1.6 | 3.2 | 0.00 | 0.00 | 0.00 | 61 | 1000.7 |
| 20260504012024 | 11 | 206 | 1.6 | 3.2 | 0.00 | 0.00 | 0.00 | 59 | 1001.2 |
| 20260504011008 | 11 | 118 | 1.6 | 3.2 | 0.00 | 0.00 | 0.00 | 60 | 1001.4 |
| 20260504010005 | 11 | 112 | 3.2 | 4.8 | 0.00 | 0.00 | 0.00 | 61 | 1001.2 |
| 20260504005015 | 11 | 200 | 1.6 | 3.2 | 0.00 | 0.00 | 0.00 | 60 | 1001.1 |
| 20260504004011 | 11 | 247 | 6.4 | 8.0 | 0.00 | 0.00 | 0.00 | 61 | 1001.4 |
| 20260504003004 | 11 | 19 | 1.6 | 4.8 | 0.00 | 0.00 | 0.00 | 60 | 1001.5 |
| 20260504001002 | 11 | 228 | 3.2 | 3.2 | 0.00 | 0.00 | 0.00 | 58 | 1001.2 |
| 20260504000041 | 11 | 225 | 3.2 | 4.8 | 0.00 | 0.00 | 0.00 | 57 | 1001.1 |
| 20260503235026 | 11 | 157 | 1.6 | 3.2 | 0.00 | 0.00 | 0.00 | 57 | 1001.2 |
| 20260503233013 | 12 | 276 | 6.4 | 8.0 | 0.00 | 0.00 | 0.00 | 54 | 1001.2 |
| 20260503232003 | 12 | 236 | 4.8 | 6.4 | 0.00 | 0.00 | 0.00 | 53 | 1001.2 |
| 20260503231034 | 12 | 283 | 6.4 | 8.0 | 0.00 | 0.00 | 0.00 | 52 | 1000.8 |
| 20260503230020 | 12 | 137 | 3.2 | 4.8 | 0.00 | 0.00 | 0.00 | 51 | 1000.8 |
| 20260503225008 | 12 | 257 | 3.2 | 4.8 | 0.00 | 0.00 | 0.00 | 51 | 1000.8 |
| 20260503224039 | 12 | 219 | 6.4 | 8.0 | 0.00 | 0.00 | 0.00 | 46 | 1000.6 |
| 20260503223029 | 12 | 229 | 4.8 | 6.4 | 0.00 | 0.00 | 0.00 | 46 | 1000.6 |
| 20260503222024 | 12 | 201 | 1.6 | 3.2 | 0.00 | 0.00 | 0.00 | 51 | 1000.7 |
| 20260503220023 | 12 | 158 | 1.6 | 3.2 | 0.00 | 0.00 | 0.00 | 49 | 1000.9 |
| 20260503214021 | 13 | 281 | 4.8 | 6.4 | 0.00 | 0.00 | 0.00 | 47 | 1000.8 |
| 20260503213012 | 13 | 201 | 1.6 | 4.8 | 0.00 | 0.00 | 0.00 | 47 | 1000.8 |
| 20260503212040 | 13 | 209 | 3.2 | 4.8 | 0.00 | 0.00 | 0.00 | 47 | 1000.7 |
| 20260503211017 | 13 | 188 | 1.6 | 3.2 | 0.00 | 0.00 | 0.00 | 46 | 1000.6 |
| 20260503210042 | 13 | 326 | 3.2 | 4.8 | 0.00 | 0.00 | 0.00 | 44 | 1000.5 |
| 20260503205024 | 15 | 162 | 0.0 | 0.0 | 0.00 | 0.00 | 0.00 | 43 | 1000.5 |
| 20260503204021 | 14 | 281 | 1.6 | 4.8 | 0.00 | 0.00 | 0.00 | 46 | 1000.7 |
| 20260503203017 | 14 | 246 | 4.8 | 6.4 | 0.00 | 0.00 | 0.00 | 41 | 1000.8 |
| 20260503202019 | 15 | 241 | 4.8 | 6.4 | 0.00 | 0.00 | 0.00 | 42 | 1000.8 |
| 20260503201008 | 13 | 265 | 3.2 | 4.8 | 0.00 | 0.00 | 0.00 | 44 | 1001.0 |
| 20260503200042 | 13 | 197 | 1.6 | 3.2 | 0.00 | 0.00 | 0.00 | 45 | 1001.5 |
| 20260503195045 | 12 | 198 | 1.6 | 3.2 | 0.00 | 0.00 | 0.00 | 44 | 1001.6 |
| 20260503194035 | 13 | 98 | 4.8 | 6.4 | 0.00 | 0.00 | 0.00 | 45 | 1001.6 |
| 20260503192012 | 12 | 196 | 1.6 | 3.2 | 0.00 | 0.00 | 0.00 | 46 | 1002.1 |
| 20260503191007 | 13 | 286 | 3.2 | 6.4 | 0.00 | 0.00 | 0.00 | 44 | 1002.2 |
| 20260503190045 | 12 | 311 | 3.2 | 6.4 | 0.00 | 0.00 | 0.00 | 44 | 1002.7 |
| 20260503184028 | 13 | 243 | 1.6 | 6.4 | 0.00 | 0.00 | 0.00 | 50 | 1002.9 |
| 20260503183036 | 13 | 244 | 3.2 | 4.8 | 0.00 | 0.00 | 0.00 | 47 | 1002.7 |
| 20260503181019 | 11 | 209 | 4.8 | 8.0 | 0.00 | 0.00 | 0.00 | 48 | 1002.9 |
| 20260503175013 | 12 | 302 | 3.2 | 4.8 | 0.00 | 0.00 | 0.00 | 51 | 1003.1 |
| 20260503174015 | 11 | 243 | 4.8 | 6.4 | 0.00 | 0.00 | 0.00 | 51 | 1003.0 |
| 20260503173023 | 13 | 204 | 3.2 | 3.2 | 0.00 | 0.00 | 0.00 | 54 | 1003.1 |
| 20260503172033 | 13 | 247 | 3.2 | 3.2 | 0.00 | 0.00 | 0.00 | 53 | 1003.1 |
| 20260503171042 | 12 | 94 | 1.6 | 4.8 | 0.00 | 0.00 | 0.00 | 51 | 1003.3 |
| 20260503151006 | 11 | 99 | 1.6 | 3.2 | 0.00 | 0.00 | 0.00 | 55 | 1004.5 |
| 20260503131031 | 7 | 213 | 3.2 | 4.8 | 0.00 | 0.00 | 0.00 | 58 | 1005.7 |
| 20260503081017 | 1 | 168 | 0.0 | 0.0 | 0.00 | 0.00 | 0.00 | 85 | 1005.3 |
| 20260503072029 | 1 | 169 | 0.0 | 0.0 | 0.00 | 0.00 | 0.00 | 85 | 1005.3 |
| 20260503071040 | 1 | 161 | 0.0 | 0.0 | 0.00 | 0.00 | 0.00 | 85 | 1005.3 |